| time (UTC) | temp F | wind direction | speed MPH | gust MPH | rain 1hr in | rain 24hr in | rain mn in | humidity % | barometer mb |
| 20260905065001 | 83 | 307 | 3.0 | 7.0 | 0.00 | 0.00 | 0.00 | 27 | 1007.4 |
| 20260905064502 | 82 | 310 | 1.0 | 5.0 | 0.00 | 0.00 | 0.00 | 27 | 1007.4 |
| 20260905064002 | 82 | 318 | 2.0 | 6.0 | 0.00 | 0.00 | 0.00 | 27 | 1007.4 |
| 20260905063502 | 82 | 326 | 2.0 | 7.0 | 0.00 | 0.00 | 0.00 | 28 | 1007.4 |
| 20260905063002 | 83 | 316 | 3.0 | 7.0 | 0.00 | 0.00 | 0.00 | 28 | 1007.3 |
| 20260905062502 | 83 | 312 | 2.0 | 6.0 | 0.00 | 0.00 | 0.00 | 28 | 1007.3 |
| 20260905062001 | 83 | 309 | 3.0 | 8.0 | 0.00 | 0.00 | 0.00 | 27 | 1007.2 |
| 20260905061502 | 83 | 325 | 4.0 | 12.0 | 0.00 | 0.00 | 0.00 | 27 | 1007.1 |
| 20260905060503 | 83 | 307 | 4.0 | 9.0 | 0.00 | 0.00 | 0.00 | 27 | 1007.2 |
| 20260905055502 | 83 | 295 | 8.0 | 15.0 | 0.00 | 0.00 | 0.00 | 27 | 1006.9 |
| 20260905055002 | 83 | 309 | 5.0 | 15.0 | 0.00 | 0.00 | 0.00 | 27 | 1007.0 |
| 20260905054503 | 83 | 304 | 7.0 | 14.0 | 0.00 | 0.00 | 0.00 | 27 | 1007.0 |
| 20260905054003 | 83 | 304 | 6.0 | 12.0 | 0.00 | 0.00 | 0.00 | 28 | 1007.0 |
| 20260905053504 | 83 | 300 | 7.0 | 15.0 | 0.00 | 0.00 | 0.00 | 28 | 1006.9 |
| 20260905052503 | 83 | 304 | 6.0 | 15.0 | 0.00 | 0.00 | 0.00 | 26 | 1007.0 |
| 20260905052003 | 83 | 296 | 6.0 | 14.0 | 0.00 | 0.00 | 0.00 | 27 | 1007.0 |
| 20260905051003 | 83 | 317 | 4.0 | 12.0 | 0.00 | 0.00 | 0.00 | 28 | 1006.9 |
| 20260905050502 | 84 | 323 | 3.0 | 14.0 | 0.00 | 0.00 | 0.00 | 27 | 1007.0 |
| 20260905050002 | 84 | 305 | 6.0 | 12.0 | 0.00 | 0.00 | 0.00 | 26 | 1006.9 |
| 20260905045503 | 84 | 316 | 5.0 | 14.0 | 0.00 | 0.00 | 0.00 | 26 | 1006.9 |
| 20260905045003 | 84 | 311 | 5.0 | 17.0 | 0.00 | 0.00 | 0.00 | 25 | 1006.9 |
| 20260905044002 | 85 | 301 | 6.0 | 14.0 | 0.00 | 0.00 | 0.00 | 25 | 1006.9 |
| 20260905043003 | 85 | 323 | 3.0 | 9.0 | 0.00 | 0.00 | 0.00 | 25 | 1006.7 |
| 20260905042503 | 85 | 311 | 3.0 | 8.0 | 0.00 | 0.00 | 0.00 | 25 | 1006.7 |
| 20260905042003 | 85 | 302 | 4.0 | 8.0 | 0.00 | 0.00 | 0.00 | 24 | 1006.6 |
| 20260905041503 | 85 | 317 | 6.0 | 13.0 | 0.00 | 0.00 | 0.00 | 24 | 1006.4 |
| 20260905041003 | 85 | 327 | 4.0 | 12.0 | 0.00 | 0.00 | 0.00 | 24 | 1006.4 |
| 20260905040502 | 86 | 335 | 3.0 | 10.0 | 0.00 | 0.00 | 0.00 | 24 | 1006.4 |
| 20260905040003 | 86 | 314 | 6.0 | 14.0 | 0.00 | 0.00 | 0.00 | 24 | 1006.4 |
| 20260905035503 | 86 | 299 | 8.0 | 20.0 | 0.00 | 0.00 | 0.00 | 24 | 1006.4 |
| 20260905035003 | 87 | 296 | 7.0 | 17.0 | 0.00 | 0.00 | 0.00 | 24 | 1006.4 |
| 20260905034502 | 87 | 301 | 6.0 | 15.0 | 0.00 | 0.00 | 0.00 | 23 | 1006.3 |
| 20260905034002 | 87 | 292 | 7.0 | 13.0 | 0.00 | 0.00 | 0.00 | 24 | 1006.3 |
| 20260905033503 | 87 | 290 | 6.0 | 20.0 | 0.00 | 0.00 | 0.00 | 24 | 1006.1 |
| 20260905033003 | 87 | 297 | 6.0 | 12.0 | 0.00 | 0.00 | 0.00 | 24 | 1006.0 |
| 20260905032003 | 88 | 303 | 8.0 | 14.0 | 0.00 | 0.00 | 0.00 | 23 | 1006.0 |
| 20260905031503 | 88 | 296 | 7.0 | 17.0 | 0.00 | 0.00 | 0.00 | 22 | 1005.9 |
| 20260905031003 | 89 | 295 | 7.0 | 16.0 | 0.00 | 0.00 | 0.00 | 23 | 1005.9 |
| 20260905030003 | 89 | 300 | 7.0 | 14.0 | 0.00 | 0.00 | 0.00 | 21 | 1005.4 |
| 20260905025003 | 89 | 287 | 6.0 | 16.0 | 0.00 | 0.00 | 0.00 | 21 | 1005.3 |
| 20260905024503 | 90 | 292 | 7.0 | 13.0 | 0.00 | 0.00 | 0.00 | 21 | 1005.3 |
| 20260905023503 | 90 | 300 | 7.0 | 14.0 | 0.00 | 0.00 | 0.00 | 21 | 1005.1 |
| 20260905023003 | 90 | 274 | 5.0 | 15.0 | 0.00 | 0.00 | 0.00 | 21 | 1005.2 |
| 20260905022503 | 91 | 295 | 7.0 | 14.0 | 0.00 | 0.00 | 0.00 | 19 | 1005.1 |
| 20260905022003 | 92 | 294 | 6.0 | 16.0 | 0.00 | 0.00 | 0.00 | 18 | 1005.0 |
| 20260905021002 | 92 | 298 | 6.0 | 12.0 | 0.00 | 0.00 | 0.00 | 18 | 1004.9 |
| 20260905020502 | 93 | 279 | 9.0 | 18.0 | 0.00 | 0.00 | 0.00 | 18 | 1004.8 |
| 20260905020003 | 93 | 291 | 10.0 | 20.0 | 0.00 | 0.00 | 0.00 | 17 | 1004.9 |
| 20260905015502 | 94 | 301 | 7.0 | 14.0 | 0.00 | 0.00 | 0.00 | 17 | 1004.9 |
| 20260905015003 | 94 | 308 | 6.0 | 14.0 | 0.00 | 0.00 | 0.00 | 17 | 1004.8 |
| 20260905014002 | 95 | 299 | 7.0 | 17.0 | 0.00 | 0.00 | 0.00 | 16 | 1004.8 |
| 20260905013503 | 95 | 299 | 7.0 | 16.0 | 0.00 | 0.00 | 0.00 | 16 | 1004.8 |
| 20260905013003 | 95 | 301 | 9.0 | 16.0 | 0.00 | 0.00 | 0.00 | 16 | 1004.8 |
| 20260905012502 | 95 | 294 | 9.0 | 18.0 | 0.00 | 0.00 | 0.00 | 16 | 1004.9 |
| 20260905012003 | 96 | 290 | 10.0 | 16.0 | 0.00 | 0.00 | 0.00 | 16 | 1004.9 |
| 20260905011503 | 96 | 299 | 7.0 | 17.0 | 0.00 | 0.00 | 0.00 | 17 | 1004.9 |
| 20260905011003 | 96 | 297 | 7.0 | 16.0 | 0.00 | 0.00 | 0.00 | 17 | 1004.9 |
| 20260905010502 | 97 | 288 | 10.0 | 17.0 | 0.00 | 0.00 | 0.00 | 16 | 1004.9 |
| 20260905010003 | 97 | 289 | 7.0 | 14.0 | 0.00 | 0.00 | 0.00 | 16 | 1004.9 |
| 20260905005502 | 98 | 283 | 8.0 | 13.0 | 0.00 | 0.00 | 0.00 | 16 | 1004.9 |
| 20260905005002 | 98 | 309 | 6.0 | 13.0 | 0.00 | 0.00 | 0.00 | 16 | 1004.9 |
| 20260905004503 | 98 | 280 | 8.0 | 16.0 | 0.00 | 0.00 | 0.00 | 16 | 1005.0 |
| 20260905004003 | 99 | 282 | 5.0 | 9.0 | 0.00 | 0.00 | 0.00 | 16 | 1005.1 |
| 20260905003003 | 99 | 307 | 2.0 | 13.0 | 0.00 | 0.00 | 0.00 | 15 | 1005.2 |
| 20260905002503 | 99 | 296 | 6.0 | 12.0 | 0.00 | 0.00 | 0.00 | 15 | 1005.1 |
| 20260905002003 | 100 | 290 | 3.0 | 10.0 | 0.00 | 0.00 | 0.00 | 15 | 1005.0 |
| 20260905001002 | 100 | 263 | 1.0 | 7.0 | 0.00 | 0.00 | 0.00 | 16 | 1005.2 |
| 20260905000502 | 99 | 13 | 2.0 | 5.0 | 0.00 | 0.00 | 0.00 | 17 | 1005.3 |
| 20260904235002 | 98 | 94 | 1.0 | 2.0 | 0.00 | 0.00 | 0.00 | 16 | 1005.3 |
| 20260904234502 | 98 | 213 | 2.0 | 3.0 | 0.00 | 0.00 | 0.00 | 17 | 1005.3 |
| 20260904234003 | 99 | 153 | 2.0 | 5.0 | 0.00 | 0.00 | 0.00 | 16 | 1005.4 |
| 20260904233503 | 98 | 187 | 2.0 | 5.0 | 0.00 | 0.00 | 0.00 | 16 | 1005.4 |
| 20260904233002 | 98 | 210 | 5.0 | 7.0 | 0.00 | 0.00 | 0.00 | 17 | 1005.4 |
| 20260904232502 | 98 | 192 | 5.0 | 7.0 | 0.00 | 0.00 | 0.00 | 17 | 1005.4 |
| 20260904232003 | 99 | 167 | 3.0 | 7.0 | 0.00 | 0.00 | 0.00 | 16 | 1005.4 |
| 20260904231003 | 100 | 125 | 4.0 | 9.0 | 0.00 | 0.00 | 0.00 | 16 | 1005.5 |
| 20260904230503 | 99 | 193 | 5.0 | 7.0 | 0.00 | 0.00 | 0.00 | 16 | 1005.7 |
| 20260904230003 | 100 | 83 | 6.0 | 8.0 | 0.00 | 0.00 | 0.00 | 15 | 1005.7 |
| 20260904225504 | 99 | 122 | 5.0 | 9.0 | 0.00 | 0.00 | 0.00 | 16 | 1005.7 |
| 20260904224503 | 98 | 106 | 1.0 | 8.0 | 0.00 | 0.00 | 0.00 | 15 | 1005.7 |
| 20260904224003 | 99 | 114 | 4.0 | 9.0 | 0.00 | 0.00 | 0.00 | 15 | 1005.8 |
| 20260904223503 | 99 | 135 | 2.0 | 7.0 | 0.00 | 0.00 | 0.00 | 15 | 1005.8 |
| 20260904223003 | 98 | 88 | 2.0 | 8.0 | 0.00 | 0.00 | 0.00 | 16 | 1005.9 |
| 20260904222503 | 97 | 246 | 3.0 | 6.0 | 0.00 | 0.00 | 0.00 | 15 | 1005.9 |
| 20260904222002 | 97 | 176 | 2.0 | 5.0 | 0.00 | 0.00 | 0.00 | 16 | 1005.9 |
| 20260904221003 | 99 | 77 | 3.0 | 9.0 | 0.00 | 0.00 | 0.00 | 15 | 1006.1 |
| 20260904220002 | 98 | 73 | 6.0 | 9.0 | 0.00 | 0.00 | 0.00 | 16 | 1006.2 |
| 20260904215003 | 97 | 122 | 3.0 | 9.0 | 0.00 | 0.00 | 0.00 | 17 | 1006.3 |
| 20260904214503 | 97 | 135 | 3.0 | 7.0 | 0.00 | 0.00 | 0.00 | 15 | 1006.4 |
| 20260904214003 | 97 | 136 | 3.0 | 7.0 | 0.00 | 0.00 | 0.00 | 16 | 1006.4 |
| 20260904213503 | 97 | 142 | 3.0 | 8.0 | 0.00 | 0.00 | 0.00 | 16 | 1006.4 |
| 20260904213002 | 97 | 150 | 2.0 | 8.0 | 0.00 | 0.00 | 0.00 | 15 | 1006.5 |
| 20260904212503 | 99 | 116 | 5.0 | 9.0 | 0.00 | 0.00 | 0.00 | 15 | 1006.5 |
| 20260904212002 | 97 | 123 | 4.0 | 8.0 | 0.00 | 0.00 | 0.00 | 16 | 1006.4 |
| 20260904211502 | 97 | 33 | 4.0 | 7.0 | 0.00 | 0.00 | 0.00 | 16 | 1006.5 |
| 20260904211003 | 97 | 148 | 2.0 | 8.0 | 0.00 | 0.00 | 0.00 | 16 | 1006.5 |
| 20260904210503 | 97 | 111 | 7.0 | 10.0 | 0.00 | 0.00 | 0.00 | 15 | 1006.6 |
| 20260904210003 | 97 | 125 | 7.0 | 10.0 | 0.00 | 0.00 | 0.00 | 15 | 1006.5 |
| 20260904205003 | 97 | 93 | 5.0 | 8.0 | 0.00 | 0.00 | 0.00 | 16 | 1006.8 |
| 20260904204503 | 95 | 182 | 2.0 | 3.0 | 0.00 | 0.00 | 0.00 | 17 | 1006.8 |
| 20260904204003 | 95 | 207 | 3.0 | 6.0 | 0.00 | 0.00 | 0.00 | 17 | 1006.8 |
| 20260904203502 | 96 | 147 | 2.0 | 7.0 | 0.00 | 0.00 | 0.00 | 16 | 1006.8 |
| 20260904203003 | 96 | 196 | 2.0 | 7.0 | 0.00 | 0.00 | 0.00 | 16 | 1006.8 |
| 20260904202503 | 95 | 205 | 3.0 | 7.0 | 0.00 | 0.00 | 0.00 | 17 | 1006.9 |
| 20260904202003 | 95 | 216 | 4.0 | 7.0 | 0.00 | 0.00 | 0.00 | 16 | 1006.9 |
| 20260904201502 | 95 | 253 | 3.0 | 6.0 | 0.00 | 0.00 | 0.00 | 17 | 1006.9 |
| 20260904201003 | 96 | 213 | 0.0 | 5.0 | 0.00 | 0.00 | 0.00 | 17 | 1007.0 |
| 20260904200503 | 95 | 46 | 3.0 | 7.0 | 0.00 | 0.00 | 0.00 | 17 | 1007.0 |
| 20260904195503 | 95 | 86 | 3.0 | 8.0 | 0.00 | 0.00 | 0.00 | 16 | 1007.3 |
| 20260904195003 | 94 | 116 | 4.0 | 8.0 | 0.00 | 0.00 | 0.00 | 17 | 1007.4 |
| 20260904194503 | 94 | 77 | 1.0 | 7.0 | 0.00 | 0.00 | 0.00 | 21 | 1007.4 |
| 20260904194003 | 93 | 204 | 1.0 | 3.0 | 0.00 | 0.00 | 0.00 | 19 | 1007.4 |
| 20260904193503 | 93 | 112 | 2.0 | 5.0 | 0.00 | 0.00 | 0.00 | 19 | 1007.5 |
| 20260904193003 | 94 | 145 | 2.0 | 8.0 | 0.00 | 0.00 | 0.00 | 19 | 1007.6 |
| 20260904192503 | 94 | 104 | 2.0 | 6.0 | 0.00 | 0.00 | 0.00 | 18 | 1007.7 |
| 20260904192004 | 94 | 71 | 4.0 | 9.0 | 0.00 | 0.00 | 0.00 | 19 | 1007.9 |
| 20260904191503 | 92 | 127 | 1.0 | 6.0 | 0.00 | 0.00 | 0.00 | 21 | 1007.9 |
| 20260904190503 | 91 | 258 | 3.0 | 5.0 | 0.00 | 0.00 | 0.00 | 22 | 1008.0 |
| 20260904190003 | 91 | 267 | 2.0 | 3.0 | 0.00 | 0.00 | 0.00 | 20 | 1008.1 |
| 20260904185503 | 91 | 150 | 2.0 | 6.0 | 0.00 | 0.00 | 0.00 | 22 | 1008.2 |
| 20260904185003 | 91 | 169 | 2.0 | 6.0 | 0.00 | 0.00 | 0.00 | 22 | 1008.3 |
| 20260904184503 | 92 | 188 | 2.0 | 6.0 | 0.00 | 0.00 | 0.00 | 21 | 1008.4 |
| 20260904184003 | 91 | 126 | 1.0 | 3.0 | 0.00 | 0.00 | 0.00 | 22 | 1008.4 |
| 20260904183503 | 91 | 190 | 5.0 | 6.0 | 0.00 | 0.00 | 0.00 | 23 | 1008.4 |
| 20260904182503 | 90 | 99 | 1.0 | 3.0 | 0.00 | 0.00 | 0.00 | 23 | 1008.5 |
| 20260904182003 | 90 | 200 | 4.0 | 7.0 | 0.00 | 0.00 | 0.00 | 23 | 1008.5 |
| 20260904181503 | 89 | 146 | 1.0 | 5.0 | 0.00 | 0.00 | 0.00 | 23 | 1008.5 |
| 20260904181003 | 89 | 152 | 3.0 | 7.0 | 0.00 | 0.00 | 0.00 | 22 | 1008.5 |
| 20260904180503 | 89 | 194 | 2.0 | 3.0 | 0.00 | 0.00 | 0.00 | 25 | 1008.5 |
| 20260904180002 | 89 | 99 | 3.0 | 6.0 | 0.00 | 0.00 | 0.00 | 24 | 1008.5 |
| 20260904175504 | 89 | 100 | 2.0 | 5.0 | 0.00 | 0.00 | 0.00 | 24 | 1008.5 |
| 20260904175003 | 89 | 192 | 3.0 | 7.0 | 0.00 | 0.00 | 0.00 | 24 | 1008.5 |
| 20260904174502 | 89 | 223 | 3.0 | 8.0 | 0.00 | 0.00 | 0.00 | 24 | 1008.5 |
| 20260904174003 | 89 | 149 | 3.0 | 6.0 | 0.00 | 0.00 | 0.00 | 25 | 1008.5 |
| 20260904173504 | 89 | 118 | 5.0 | 7.0 | 0.00 | 0.00 | 0.00 | 26 | 1008.5 |
| 20260904173003 | 88 | 198 | 3.0 | 6.0 | 0.00 | 0.00 | 0.00 | 24 | 1008.5 |
| 20260904172502 | 88 | 152 | 2.0 | 6.0 | 0.00 | 0.00 | 0.00 | 27 | 1008.5 |
| 20260904172002 | 87 | 184 | 1.0 | 6.0 | 0.00 | 0.00 | 0.00 | 26 | 1008.5 |
| 20260904171503 | 87 | 207 | 2.0 | 5.0 | 0.00 | 0.00 | 0.00 | 27 | 1008.5 |
| 20260904171003 | 87 | 200 | 2.0 | 3.0 | 0.00 | 0.00 | 0.00 | 27 | 1008.5 |
| 20260904165503 | 86 | 168 | 0.0 | 3.0 | 0.00 | 0.00 | 0.00 | 29 | 1008.5 |
| 20260904165004 | 85 | 183 | 1.0 | 5.0 | 0.00 | 0.00 | 0.00 | 29 | 1008.5 |
| 20260904164503 | 85 | 194 | 3.0 | 7.0 | 0.00 | 0.00 | 0.00 | 31 | 1008.5 |
| 20260904164003 | 85 | 214 | 3.0 | 6.0 | 0.00 | 0.00 | 0.00 | 29 | 1008.5 |
| 20260904163503 | 85 | 219 | 3.0 | 7.0 | 0.00 | 0.00 | 0.00 | 29 | 1008.4 |
| 20260904163003 | 85 | 198 | 3.0 | 5.0 | 0.00 | 0.00 | 0.00 | 29 | 1008.4 |
| 20260904162503 | 85 | 212 | 4.0 | 6.0 | 0.00 | 0.00 | 0.00 | 30 | 1008.2 |
| 20260904162003 | 85 | 218 | 5.0 | 9.0 | 0.00 | 0.00 | 0.00 | 30 | 1008.1 |
| 20260904161503 | 85 | 216 | 5.0 | 8.0 | 0.00 | 0.00 | 0.00 | 28 | 1008.0 |
| 20260904161002 | 85 | 252 | 3.0 | 10.0 | 0.00 | 0.00 | 0.00 | 28 | 1008.0 |
| 20260904160502 | 85 | 252 | 4.0 | 8.0 | 0.00 | 0.00 | 0.00 | 27 | 1007.9 |
| 20260904160003 | 85 | 271 | 4.0 | 10.0 | 0.00 | 0.00 | 0.00 | 27 | 1007.9 |
| 20260904155503 | 85 | 273 | 3.0 | 7.0 | 0.00 | 0.00 | 0.00 | 26 | 1007.8 |
| 20260904155002 | 84 | 283 | 3.0 | 9.0 | 0.00 | 0.00 | 0.00 | 26 | 1007.7 |
| 20260904154503 | 84 | 282 | 5.0 | 12.0 | 0.00 | 0.00 | 0.00 | 26 | 1007.7 |
| 20260904154002 | 84 | 276 | 6.0 | 10.0 | 0.00 | 0.00 | 0.00 | 26 | 1007.7 |
| 20260904153503 | 83 | 273 | 6.0 | 10.0 | 0.00 | 0.00 | 0.00 | 26 | 1007.7 |
| 20260904153003 | 83 | 284 | 5.0 | 12.0 | 0.00 | 0.00 | 0.00 | 26 | 1007.6 |
| 20260904152502 | 83 | 283 | 5.0 | 10.0 | 0.00 | 0.00 | 0.00 | 26 | 1007.5 |
| 20260904152002 | 83 | 276 | 6.0 | 12.0 | 0.00 | 0.00 | 0.00 | 26 | 1007.5 |
| 20260904151503 | 82 | 287 | 5.0 | 12.0 | 0.00 | 0.00 | 0.00 | 26 | 1007.5 |
| 20260904151002 | 82 | 282 | 6.0 | 14.0 | 0.00 | 0.00 | 0.00 | 26 | 1007.5 |
| 20260904150502 | 82 | 284 | 6.0 | 13.0 | 0.00 | 0.00 | 0.00 | 26 | 1007.4 |
| 20260904150003 | 81 | 297 | 6.0 | 12.0 | 0.00 | 0.00 | 0.00 | 26 | 1007.4 |
| 20260904145503 | 81 | 305 | 5.0 | 12.0 | 0.00 | 0.00 | 0.00 | 26 | 1007.4 |
| 20260904145003 | 81 | 266 | 5.0 | 13.0 | 0.00 | 0.00 | 0.00 | 26 | 1007.4 |
| 20260904144503 | 80 | 274 | 6.0 | 16.0 | 0.00 | 0.00 | 0.00 | 26 | 1007.3 |
| 20260904144003 | 80 | 290 | 6.0 | 13.0 | 0.00 | 0.00 | 0.00 | 26 | 1007.2 |
| 20260904143502 | 79 | 293 | 5.0 | 12.0 | 0.00 | 0.00 | 0.00 | 26 | 1007.2 |
| 20260904143003 | 79 | 295 | 5.0 | 14.0 | 0.00 | 0.00 | 0.00 | 27 | 1007.0 |
| 20260904142503 | 79 | 300 | 7.0 | 14.0 | 0.00 | 0.00 | 0.00 | 27 | 1006.9 |
| 20260904142003 | 79 | 284 | 6.0 | 14.0 | 0.00 | 0.00 | 0.00 | 27 | 1006.9 |
| 20260904141503 | 79 | 291 | 7.0 | 12.0 | 0.00 | 0.00 | 0.00 | 27 | 1006.9 |
| 20260904141003 | 78 | 284 | 5.0 | 14.0 | 0.00 | 0.00 | 0.00 | 27 | 1006.8 |
| 20260904140502 | 78 | 299 | 5.0 | 15.0 | 0.00 | 0.00 | 0.00 | 27 | 1006.6 |
| 20260904135502 | 78 | 285 | 7.0 | 15.0 | 0.00 | 0.00 | 0.00 | 27 | 1006.5 |
| 20260904135003 | 78 | 289 | 6.0 | 12.0 | 0.00 | 0.00 | 0.00 | 26 | 1006.4 |
| 20260904134502 | 78 | 279 | 5.0 | 12.0 | 0.00 | 0.00 | 0.00 | 26 | 1006.4 |
| 20260904134003 | 78 | 291 | 7.0 | 14.0 | 0.00 | 0.00 | 0.00 | 26 | 1006.4 |
| 20260904133503 | 78 | 290 | 5.0 | 15.0 | 0.00 | 0.00 | 0.00 | 26 | 1006.2 |
| 20260904133003 | 78 | 280 | 10.0 | 16.0 | 0.00 | 0.00 | 0.00 | 25 | 1006.1 |
| 20260904132503 | 78 | 288 | 11.0 | 18.0 | 0.00 | 0.00 | 0.00 | 25 | 1006.1 |
| 20260904132003 | 78 | 298 | 6.0 | 16.0 | 0.00 | 0.00 | 0.00 | 25 | 1006.0 |
| 20260904131503 | 78 | 288 | 9.0 | 18.0 | 0.00 | 0.00 | 0.00 | 25 | 1005.9 |
| 20260904130503 | 79 | 302 | 8.0 | 17.0 | 0.00 | 0.00 | 0.00 | 25 | 1005.8 |
| 20260904130002 | 78 | 293 | 7.0 | 15.0 | 0.00 | 0.00 | 0.00 | 25 | 1005.8 |
| 20260904125503 | 78 | 296 | 7.0 | 16.0 | 0.00 | 0.00 | 0.00 | 25 | 1005.8 |
| 20260904125003 | 79 | 279 | 9.0 | 17.0 | 0.00 | 0.00 | 0.00 | 25 | 1005.8 |
| 20260904124503 | 79 | 305 | 9.0 | 16.0 | 0.00 | 0.00 | 0.00 | 26 | 1005.5 |
| 20260904124002 | 79 | 285 | 9.0 | 18.0 | 0.00 | 0.00 | 0.00 | 26 | 1005.5 |
| 20260904123503 | 79 | 282 | 8.0 | 16.0 | 0.00 | 0.00 | 0.00 | 27 | 1005.4 |
| 20260904123003 | 79 | 283 | 9.0 | 16.0 | 0.00 | 0.00 | 0.00 | 27 | 1005.4 |
| 20260904122503 | 79 | 290 | 12.0 | 16.0 | 0.00 | 0.00 | 0.00 | 28 | 1005.4 |
| 20260904121502 | 79 | 272 | 7.0 | 15.0 | 0.00 | 0.00 | 0.00 | 29 | 1005.4 |
| 20260904121002 | 79 | 291 | 8.0 | 15.0 | 0.00 | 0.00 | 0.00 | 29 | 1005.4 |
| 20260904120502 | 79 | 293 | 9.0 | 17.0 | 0.00 | 0.00 | 0.00 | 30 | 1005.4 |
| 20260904115003 | 79 | 296 | 7.0 | 20.0 | 0.00 | 0.00 | 0.00 | 30 | 1005.3 |
| 20260904114503 | 79 | 283 | 6.0 | 21.0 | 0.00 | 0.00 | 0.00 | 30 | 1005.3 |
| 20260904114002 | 79 | 305 | 7.0 | 13.0 | 0.00 | 0.00 | 0.00 | 30 | 1005.3 |
| 20260904113504 | 79 | 284 | 9.0 | 16.0 | 0.00 | 0.00 | 0.00 | 30 | 1005.3 |
| 20260904113002 | 79 | 286 | 8.0 | 15.0 | 0.00 | 0.00 | 0.00 | 30 | 1005.3 |
| 20260904112503 | 79 | 282 | 9.0 | 17.0 | 0.00 | 0.00 | 0.00 | 30 | 1005.3 |
| 20260904112002 | 79 | 286 | 7.0 | 17.0 | 0.00 | 0.00 | 0.00 | 30 | 1005.2 |
| 20260904111503 | 79 | 304 | 7.0 | 16.0 | 0.00 | 0.00 | 0.00 | 30 | 1005.3 |
| 20260904111003 | 79 | 309 | 7.0 | 16.0 | 0.00 | 0.00 | 0.00 | 30 | 1005.1 |
| 20260904110002 | 79 | 303 | 6.0 | 15.0 | 0.00 | 0.00 | 0.00 | 29 | 1004.8 |
| 20260904105503 | 79 | 296 | 8.0 | 14.0 | 0.00 | 0.00 | 0.00 | 29 | 1004.9 |
| 20260904105002 | 79 | 301 | 7.0 | 14.0 | 0.00 | 0.00 | 0.00 | 28 | 1004.9 |
| 20260904104502 | 79 | 299 | 6.0 | 15.0 | 0.00 | 0.00 | 0.00 | 28 | 1004.9 |
| 20260904104002 | 79 | 296 | 7.0 | 15.0 | 0.00 | 0.00 | 0.00 | 28 | 1004.8 |
| 20260904103503 | 79 | 297 | 5.0 | 14.0 | 0.00 | 0.00 | 0.00 | 27 | 1004.8 |
| 20260904103003 | 79 | 298 | 7.0 | 14.0 | 0.00 | 0.00 | 0.00 | 28 | 1004.8 |
| 20260904101503 | 79 | 310 | 7.0 | 13.0 | 0.00 | 0.00 | 0.00 | 28 | 1004.8 |
| 20260904101003 | 79 | 305 | 6.0 | 15.0 | 0.00 | 0.00 | 0.00 | 28 | 1004.8 |
| 20260904100003 | 79 | 314 | 6.0 | 13.0 | 0.00 | 0.00 | 0.00 | 29 | 1004.8 |
| 20260904095502 | 79 | 302 | 6.0 | 12.0 | 0.00 | 0.00 | 0.00 | 29 | 1004.8 |
| 20260904095003 | 79 | 295 | 7.0 | 16.0 | 0.00 | 0.00 | 0.00 | 29 | 1004.8 |
| 20260904094502 | 79 | 286 | 9.0 | 16.0 | 0.00 | 0.00 | 0.00 | 30 | 1004.8 |
| 20260904094003 | 79 | 291 | 8.0 | 14.0 | 0.00 | 0.00 | 0.00 | 30 | 1004.8 |
| 20260904093503 | 79 | 287 | 6.0 | 16.0 | 0.00 | 0.00 | 0.00 | 31 | 1004.8 |
| 20260904093003 | 79 | 288 | 7.0 | 13.0 | 0.00 | 0.00 | 0.00 | 32 | 1004.8 |
| 20260904092503 | 79 | 301 | 7.0 | 12.0 | 0.00 | 0.00 | 0.00 | 33 | 1004.9 |
| 20260904091003 | 79 | 293 | 7.0 | 15.0 | 0.00 | 0.00 | 0.00 | 35 | 1004.9 |
| 20260904090502 | 79 | 297 | 6.0 | 12.0 | 0.00 | 0.00 | 0.00 | 35 | 1004.9 |
| 20260904085503 | 79 | 301 | 6.0 | 12.0 | 0.00 | 0.00 | 0.00 | 35 | 1005.1 |
| 20260904085002 | 79 | 283 | 7.0 | 15.0 | 0.00 | 0.00 | 0.00 | 36 | 1005.2 |
| 20260904084003 | 79 | 283 | 5.0 | 10.0 | 0.00 | 0.00 | 0.00 | 36 | 1005.3 |
| 20260904083503 | 79 | 275 | 6.0 | 13.0 | 0.00 | 0.00 | 0.00 | 36 | 1005.3 |
| 20260904083002 | 78 | 312 | 7.0 | 17.0 | 0.00 | 0.00 | 0.00 | 37 | 1005.3 |
| 20260904082503 | 78 | 300 | 6.0 | 13.0 | 0.00 | 0.00 | 0.00 | 37 | 1005.3 |
| 20260904082003 | 78 | 306 | 9.0 | 15.0 | 0.00 | 0.00 | 0.00 | 36 | 1005.3 |
| 20260904081503 | 78 | 276 | 9.0 | 20.0 | 0.00 | 0.00 | 0.00 | 36 | 1005.4 |
| 20260904081002 | 79 | 298 | 6.0 | 15.0 | 0.00 | 0.00 | 0.00 | 36 | 1005.4 |
| 20260904080502 | 79 | 289 | 7.0 | 12.0 | 0.00 | 0.00 | 0.00 | 36 | 1005.5 |
| 20260904080002 | 79 | 297 | 7.0 | 16.0 | 0.00 | 0.00 | 0.00 | 36 | 1005.5 |
| 20260904075504 | 79 | 295 | 9.0 | 17.0 | 0.00 | 0.00 | 0.00 | 36 | 1005.4 |
| 20260904075003 | 78 | 300 | 8.0 | 18.0 | 0.00 | 0.00 | 0.00 | 36 | 1005.4 |
| 20260904074502 | 78 | 294 | 5.0 | 15.0 | 0.00 | 0.00 | 0.00 | 35 | 1005.4 |
| 20260904074003 | 79 | 284 | 9.0 | 18.0 | 0.00 | 0.00 | 0.00 | 35 | 1005.4 |
| 20260904073503 | 79 | 301 | 8.0 | 16.0 | 0.00 | 0.00 | 0.00 | 35 | 1005.4 |
| 20260904073004 | 79 | 293 | 9.0 | 17.0 | 0.00 | 0.00 | 0.00 | 35 | 1005.4 |
| 20260904072504 | 79 | 287 | 7.0 | 18.0 | 0.00 | 0.00 | 0.00 | 35 | 1005.4 |
| 20260904072003 | 79 | 293 | 9.0 | 17.0 | 0.00 | 0.00 | 0.00 | 35 | 1005.4 |
| 20260904071503 | 79 | 313 | 8.0 | 14.0 | 0.00 | 0.00 | 0.00 | 34 | 1005.3 |
| 20260904071002 | 79 | 297 | 9.0 | 16.0 | 0.00 | 0.00 | 0.00 | 34 | 1005.3 |
| 20260904070003 | 79 | 301 | 7.0 | 15.0 | 0.00 | 0.00 | 0.00 | 35 | 1005.2 |